Location: Seasalter
(51.3333°N, 1.0167°E)
Time: 19:17:03
(UTC+00:00)

Cosmos 2082 Rocket - Pass Details

Date: 26 September 2023
Orbit: 834 x 852 km, 71.0° (Epoch: 09 December)

Event Time Altitude Azimuth Distance (km) Brightness Sun altitude
Exits shadow 04:25:50 15° 285° (WNW) 2,180 3.8 -13.5°
Maximum altitude 04:28:57 22° 324° (NW) 1,795 3.7 -13.0°
Drops below altitude 10° 04:33:19 10° 14° (NNE) 2,490 5.0 -12.4°
Sets 04:36:22 0° 30° (NNE) 3,427 6.1 -11.9°
